This is the latest recevied weather packets stored in our database for station/object DL1MX-13. If no packets are shown the sender has not sent any weather packets the latest 1 day(s).
| Time | Temp. | Humidity | Pressure | Rain* | Wind** | Luminosity | Snow |
|---|---|---|---|---|---|---|---|
| 1777986122 | 14.44° C | 80% | 1009.4 hPa | 0 mm | 1.79 m/s, 220° | - | - |
| 1777986062 | 14.44° C | 80% | 1009.4 hPa | 0 mm | 5.36 m/s, 207° | - | - |
| 1777986002 | 14.44° C | 80% | 1009.4 hPa | 0 mm | 5.36 m/s, 207° | - | - |
| 1777985942 | 14.44° C | 80% | 1009.4 hPa | 0 mm | 2.68 m/s, 207° | - | - |
| 1777985881 | 14.44° C | 80% | 1009.4 hPa | 0 mm | 2.68 m/s, 207° | - | - |
| 1777985822 | 15° C | 80% | 1009.4 hPa | 0 mm | 4.47 m/s, 207° | - | - |
| 1777985761 | 15° C | 80% | 1009.4 hPa | 0 mm | 4.47 m/s, 207° | - | - |
| 1777985702 | 15° C | 80% | 1009.4 hPa | 0 mm | 4.47 m/s, 207° | - | - |
| 1777985641 | 15° C | 80% | 1009.5 hPa | 0 mm | 3.13 m/s, 215° | - | - |
| 1777985582 | 15° C | 80% | 1009.4 hPa | 0 mm | 3.13 m/s, 215° | - | - |
| 1777985522 | 15° C | 80% | 1009.5 hPa | 0 mm | 3.13 m/s, 215° | - | - |
| 1777985461 | 15° C | 80% | 1009.5 hPa | 0 mm | 3.13 m/s, 215° | - | - |
| 1777985402 | 15° C | 80% | 1009.5 hPa | 0 mm | 3.13 m/s, 215° | - | - |
| 1777985341 | 15° C | 80% | 1009.5 hPa | 0 mm | 1.79 m/s, 205° | - | - |
| 1777985282 | 15° C | 80% | 1009.5 hPa | 0 mm | 1.79 m/s, 205° | - | - |
| 1777985222 | 15° C | 80% | 1009.5 hPa | 0 mm | 1.79 m/s, 205° | - | - |
| 1777985162 | 15° C | 79% | 1009.5 hPa | 0 mm | 3.13 m/s, 220° | - | - |
| 1777985101 | 15° C | 79% | 1009.5 hPa | 0 mm | 3.13 m/s, 220° | - | - |
| 1777985042 | 15° C | 79% | 1009.5 hPa | 0 mm | 2.24 m/s, 227° | - | - |
| 1777984982 | 15° C | 79% | 1009.5 hPa | 0 mm | 2.24 m/s, 227° | - | - |
| 1777984921 | 15° C | 79% | 1009.5 hPa | 0 mm | 2.24 m/s, 227° | - | - |
| 1777984862 | 15° C | 79% | 1009.6 hPa | 0 mm | 1.79 m/s, 165° | - | - |
| 1777984801 | 15° C | 79% | 1009.6 hPa | 0 mm | 1.79 m/s, 165° | - | - |
| 1777984742 | 15.56° C | 78% | 1009.5 hPa | 0 mm | 2.24 m/s, 152° | - | - |
| 1777984681 | 15.56° C | 78% | 1009.6 hPa | 0 mm | 2.24 m/s, 152° | - | - |
* Rain since midnight (hover to see other rain measurements)
** Current wind speed in m/s (hover to see current wind gust speed)